Find Starlink 32264

NORAD ID: 61642 Int'l Des: 2024-191 Owner: SPXS Country: US Constellation: starlink operational
LEOCIRCULAR

Live-Position

3D-Globus wird geladen...

Über Starlink 32264

Beschreibung wird geladen...

Nächste Überflüge

Passes for default location (London). Set your location on the main map for personalized predictions.

Höhenverlauf

Loading altitude history...

Zweizeiliger Elementsatz

1 61642U 24191X 26124.83335647 .00097294 00000-0 20252-2 0 9994
2 61642 42.9950 195.2505 0013187 46.6926 108.8118 15.44491408 5934
Epoch: 4. Mai 2026 • Age: 11 hours

Aktueller Status

Höhe 436.0 km
Geschwindigkeit 7.65 km/s
Subsatellitenpunkt 7.73°N, 37.31°E
Startdatum 23. Okt. 2024
Alter 1.5 years
Typ internet

Technische Details

Klassifizierung Payload
Masse 730.00 kg
Trockenmasse 700.00 kg
Gesamtmasse 730.00 kg
Länge 0.30 m
Durchmesser 4.10 m
Spannweite 29.00 m
Form Box + pan
Hersteller SPXS
Bus-Typ Starlink V2M
Phasenstatus In Orbit
Besitzer/Staat SPXS/US

Most Searched